Starlink 5156

operational
NORAD ID: 53973 Int'l Des: 2022-125 Owner: SPXS Country: US Constellation: starlink
LEOCIRCULAR

Starlink 5156について

説明を読み込み中...

リアルタイム位置

3D地球を読み込み中...

次回通過

高度履歴

Altitude vs Time

uPlot chart will show altitude changes over time

軌道要素

1 53973U 22125K 25348.90115178 .00001681 00000-0 12367-3 0 9991
2 53973 53.2179 244.6336 0001740 66.9162 293.2014 15.08851062176524
Epoch: Dec 14, 2025 • Age: 20 hours

現在のステータス

高度 541.7 km
速度 7.60 km/s
衛星直下点 34.30°N, 46.33°E
打ち上げ日 Oct 5, 2022
運用期間 3.1 years
タイプ internet

技術仕様

分類 Payload
質量 305.00 kg
乾燥質量 290.00 kg
総質量 305.00 kg
長さ 0.20 m
直径 2.80 m
スパン 9.00 m
形状 Box + pan
製造者 SPXS
バスタイプ Starlink
フェーズステータス In Orbit
所有者/国 SPXS/US

大規模コンステレーション

Loading constellations...